When you browse on this site, cookies collect data to enhance your experience and personalize the content and advertising you see.
Visit our Privacy Policy to learn more. By continuing to use the site, you agree to this use of cookies and data.
  • In Czech Republic
  • List of Countries
  • For 7 days
  • Water Temperature
  • Satellite Maps
  • Weather Map
  • Weather Widgets
  • user-avatar
    Login

    Hourly Weather Lisburn

    Today, 24 January, Thursday

    Time Temperature Precipitation Wind Pressure Humidity
    00:00 +3°C° 0 mm 2 mps 751 mmHg 96%
    01:00 +3°C° 0 mm 2 mps 751 mmHg 97%
    02:00 +3°C° 0 mm 2 mps 751 mmHg 97%
    03:00 +3°C° 0 mm 2 mps 751 mmHg 97%
    04:00 +4°C° 0.1 mm 2 mps 752 mmHg 97%
    05:00 +4°C° 0.1 mm 2 mps 752 mmHg 97%
    06:00 +4°C° 0 mm 2 mps 752 mmHg 96%
    07:00 +4°C° 0.3 mm 2 mps 752 mmHg 96%
    08:00 +4°C° 0.3 mm 2 mps 752 mmHg 96%
    09:00 +4°C° 0.3 mm 2 mps 752 mmHg 97%
    10:00 +6°C° 0.2 mm 1 mps 753 mmHg 96%
    11:00 +6°C° 0.2 mm 1 mps 753 mmHg 95%
    12:00 +7°C° 0.2 mm 1 mps 753 mmHg 95%
    13:00 +7°C° 0.1 mm 1 mps 753 mmHg 95%
    14:00 +7°C° 0.1 mm 1 mps 753 mmHg 95%
    15:00 +7°C° 0.1 mm 1 mps 753 mmHg 95%
    16:00 +7°C° 0.3 mm 2 mps 753 mmHg 96%
    17:00 +7°C° 0.3 mm 2 mps 754 mmHg 96%
    18:00 +7°C° 0.3 mm 2 mps 754 mmHg 97%
    19:00 +8°C° 0.3 mm 3 mps 754 mmHg 97%
    20:00 +8°C° 0.3 mm 3 mps 754 mmHg 96%
    21:00 +8°C° 0.3 mm 4 mps 754 mmHg 96%
    22:00 +8°C° 0.1 mm 5 mps 754 mmHg 95%
    23:00 +8°C° 0.1 mm 5 mps 754 mmHg 95%

    Tomorrow, 25 January, Friday

    Time Temperature Precipitation Wind Pressure Humidity
    00:00 +8°C° 0.1 mm 6 mps 754 mmHg 94%
    01:00 +8°C° 0 mm 6 mps 754 mmHg 94%
    02:00 +8°C° 0 mm 6 mps 754 mmHg 94%
    03:00 +8°C° 0 mm 5 mps 754 mmHg 94%
    04:00 +8°C° 0.1 mm 6 mps 754 mmHg 94%
    05:00 +8°C° 0.1 mm 6 mps 754 mmHg 94%
    06:00 +8°C° 0.1 mm 6 mps 754 mmHg 94%
    07:00 +9°C° 0.1 mm 6 mps 754 mmHg 94%
    08:00 +9°C° 0.1 mm 5 mps 754 mmHg 93%
    09:00 +9°C° 0.1 mm 5 mps 755 mmHg 93%
    10:00 +9°C° 0 mm 5 mps 755 mmHg 93%
    11:00 +9°C° 0 mm 5 mps 755 mmHg 92%
    12:00 +9°C° 0 mm 6 mps 755 mmHg 92%
    13:00 +9°C° 0 mm 5 mps 755 mmHg 91%
    14:00 +9°C° 0 mm 5 mps 755 mmHg 91%
    15:00 +9°C° 0 mm 5 mps 755 mmHg 91%
    16:00 +9°C° 0 mm 6 mps 755 mmHg 91%
    17:00 +9°C° 0 mm 6 mps 755 mmHg 90%
    18:00 +9°C° 0 mm 7 mps 754 mmHg 90%
    19:00 +9°C° 0 mm 7 mps 754 mmHg 90%
    20:00 +9°C° 0 mm 7 mps 754 mmHg 89%
    21:00 +9°C° 0 mm 7 mps 754 mmHg 89%
    22:00 +9°C° 0 mm 7 mps 753 mmHg 89%
    23:00 +9°C° 0 mm 6 mps 753 mmHg 89%

    Day after tomorrow, 26 January, Saturday

    Time Temperature Precipitation Wind Pressure Humidity
    00:00 +8°C° 0 mm 6 mps 752 mmHg 89%
    01:00 +8°C° 0 mm 6 mps 752 mmHg 89%
    02:00 +9°C° 0 mm 6 mps 751 mmHg 90%
    03:00 +9°C° 0 mm 7 mps 751 mmHg 90%
    04:00 +9°C° 0.1 mm 6 mps 750 mmHg 90%
    05:00 +9°C° 0.1 mm 6 mps 748 mmHg 90%
    06:00 +9°C° 0.1 mm 6 mps 747 mmHg 90%
    07:00 +8°C° 0 mm 6 mps 746 mmHg 90%
    08:00 +8°C° 0 mm 6 mps 745 mmHg 90%
    09:00 +8°C° 0 mm 6 mps 744 mmHg 90%
    10:00 +8°C° 1.2 mm 6 mps 742 mmHg 91%
    11:00 +7°C° 1.2 mm 6 mps 741 mmHg 92%
    12:00 +6°C° 1.2 mm 7 mps 740 mmHg 93%
    13:00 +7°C° 0.1 mm 6 mps 738 mmHg 90%
    14:00 +7°C° 0.1 mm 5 mps 737 mmHg 88%
    15:00 +6°C° 0.1 mm 5 mps 735 mmHg 86%
    16:00 +6°C° 0.5 mm 4 mps 734 mmHg 89%
    17:00 +7°C° 0.5 mm 3 mps 733 mmHg 91%
    18:00 +6°C° 0.5 mm 2 mps 732 mmHg 93%
    19:00 +5°C° 0.5 mm 3 mps 733 mmHg 93%
    20:00 +5°C° 0.5 mm 5 mps 733 mmHg 93%
    21:00 +4°C° 0.5 mm 6 mps 733 mmHg 92%
    22:00 +4°C° 0.1 mm 7 mps 734 mmHg 90%
    23:00 +4°C° 0.1 mm 8 mps 735 mmHg 88%

    27 January, Sunday

    Time Temperature Precipitation Wind Pressure Humidity
    00:00 +3°C° 0.1 mm 10 mps 736 mmHg 86%
    01:00 +3°C° 0.6 mm 10 mps 737 mmHg 84%
    02:00 +3°C° 0.6 mm 11 mps 738 mmHg 81%
    03:00 +2°C° 0.6 mm 12 mps 739 mmHg 79%
    04:00 +2°C° 0.1 mm 12 mps 741 mmHg 77%
    05:00 +1°C° 0.1 mm 13 mps 742 mmHg 75%
    06:00 +1°C° 0.1 mm 13 mps 743 mmHg 72%
    07:00 +1°C° 0 mm 13 mps 745 mmHg 71%
    08:00 0°C° 0 mm 12 mps 747 mmHg 69%
    09:00 +1°C° 0 mm 11 mps 748 mmHg 68%
    10:00 +1°C° 0 mm 11 mps 749 mmHg 65%
    11:00 +2°C° 0 mm 11 mps 750 mmHg 62%
    12:00 +2°C° 0 mm 12 mps 751 mmHg 60%
    13:00 +2°C° 0 mm 11 mps 752 mmHg 60%
    14:00 +1°C° 0 mm 10 mps 752 mmHg 61%
    15:00 +1°C° 0 mm 10 mps 753 mmHg 62%
    16:00 +1°C° 0 mm 9 mps 753 mmHg 65%
    17:00 0°C° 0 mm 8 mps 754 mmHg 68%
    18:00 0°C° 0 mm 8 mps 754 mmHg 71%
    19:00 -1°C° 0 mm 7 mps 755 mmHg 72%
    20:00 -1°C° 0 mm 6 mps 755 mmHg 73%
    21:00 0°C° 0 mm 5 mps 756 mmHg 74%
    22:00 0°C° 0 mm 4 mps 756 mmHg 75%
    23:00 0°C° 0 mm 4 mps 757 mmHg 75%

    28 January, Monday

    Time Temperature Precipitation Wind Pressure Humidity
    00:00 0°C° 0 mm 3 mps 757 mmHg 75%
    01:00 0°C° 0 mm 3 mps 757 mmHg 79%
    02:00 0°C° 0 mm 3 mps 757 mmHg 82%
    03:00 -1°C° 0 mm 3 mps 757 mmHg 86%
    04:00 -1°C° 0 mm 3 mps 756 mmHg 86%
    05:00 -1°C° 0 mm 3 mps 756 mmHg 85%
    06:00 -1°C° 0 mm 3 mps 756 mmHg 85%
    07:00 0°C° 0.5 mm 3 mps 755 mmHg 84%
    08:00 0°C° 0.5 mm 4 mps 755 mmHg 83%
    09:00 0°C° 0.5 mm 5 mps 754 mmHg 82%
    10:00 +1°C° 0.3 mm 5 mps 754 mmHg 83%
    11:00 +3°C° 0.3 mm 6 mps 753 mmHg 84%
    12:00 +4°C° 0.3 mm 7 mps 753 mmHg 85%
    13:00 +3°C° 0.1 mm 7 mps 753 mmHg 84%
    14:00 +3°C° 0.1 mm 7 mps 753 mmHg 83%
    15:00 +3°C° 0.1 mm 7 mps 753 mmHg 82%
    16:00 +2°C° 0 mm 6 mps 753 mmHg 83%
    17:00 +1°C° 0 mm 6 mps 753 mmHg 85%
    18:00 0°C° 0 mm 5 mps 753 mmHg 86%
    19:00 0°C° 0 mm 5 mps 753 mmHg 86%
    20:00 0°C° 0 mm 5 mps 753 mmHg 86%
    21:00 0°C° 0 mm 5 mps 753 mmHg 86%
    22:00 0°C° 0 mm 5 mps 753 mmHg 86%
    23:00 0°C° 0 mm 5 mps 752 mmHg 85%

    29 January, Tuesday

    Time Temperature Precipitation Wind Pressure Humidity
    00:00 0°C° 0 mm 5 mps 752 mmHg 85%
    01:00 -1°C° 0 mm 5 mps 752 mmHg 85%
    02:00 -1°C° 0 mm 5 mps 751 mmHg 85%
    03:00 -1°C° 0 mm 5 mps 751 mmHg 85%
    04:00 -1°C° 0 mm 5 mps 750 mmHg 85%
    05:00 -1°C° 0 mm 5 mps 750 mmHg 84%
    06:00 -2°C° 0 mm 5 mps 749 mmHg 84%
    07:00 -1°C° 0 mm 5 mps 749 mmHg 84%
    08:00 -1°C° 0 mm 5 mps 748 mmHg 84%
    09:00 -1°C° 0 mm 5 mps 748 mmHg 84%
    10:00 -2°C° 0.3 mm 6 mps 748 mmHg 83%
    11:00 -1°C° 0.3 mm 6 mps 747 mmHg 82%
    12:00 -1°C° 0.3 mm 7 mps 747 mmHg 82%
    13:00 -1°C° 0.2 mm 7 mps 746 mmHg 80%
    14:00 -2°C° 0.2 mm 7 mps 746 mmHg 78%
    15:00 -2°C° 0.2 mm 7 mps 746 mmHg 76%
    16:00 -2°C° 0 mm 7 mps 746 mmHg 76%
    17:00 -3°C° 0 mm 6 mps 746 mmHg 76%
    18:00 -3°C° 0 mm 6 mps 746 mmHg 77%
    19:00 -3°C° 0 mm 6 mps 747 mmHg 77%
    20:00 -3°C° 0 mm 6 mps 747 mmHg 78%
    21:00 -3°C° 0 mm 6 mps 747 mmHg 78%
    22:00 -4°C° 0 mm 5 mps 747 mmHg 79%
    23:00 -4°C° 0 mm 5 mps 747 mmHg 80%
    Show more